Location: Los Ranchitos
(37.9930°N, 122.5425°W)
Time: 03:01:05
(UTC+00:00)

ARIANE 5 R/B - Pass Details

Date: 21 September 2020
Orbit: 748 x 796 km, 98.6° (Epoch: 27 October)

Event Time Altitude Azimuth Distance (km) Brightness Sun altitude
Rises 10:48:08 0° 16° (NNE) 3,245 6.4 -36.0°
Reaches altitude 10° 10:50:29 10° 20° (NNE) 2,307 5.5 -35.6°
Enters shadow 10:52:59 29° 29° (NNE) 1,370 4.2 -35.2°
